Farmville, Virginia, United States (23901)
Lat: 37.30N, Lon: 78.39W
Wx Zone: VAZ060
Local Info
Past Weather Observations for Today

NOTE: This archive is for the closest National Weather Service station to Farmville. Information may differ from the station used for current weather conditions.

Click here for Long-term Archive

Time Weather Temperature Dewpoint Humidity Pressure Winds Precip Visibility
09:15
Clear
77°F / 25°C 66°F / 19°C 69% 30.33 in
(1027 mb)
Calm - 10SM
08:55
Clear
77°F / 25°C 64°F / 18°C 65% 30.33 in
(1027 mb)
ENE 3.5 mph
(ENE 6 kph)
- 10SM
08:35
Clear
73°F / 23°C 64°F / 18°C 74% 30.33 in
(1027 mb)
Calm - 10SM
08:15
Clear
72°F / 22°C 66°F / 19°C 83% 30.33 in
(1027 mb)
NE 3.5 mph
(NE 6 kph)
- 10SM
07:55
Partly Cloudy
72°F / 22°C 66°F / 19°C 83% 30.33 in
(1027 mb)
NE 4.6 mph
(NE 7 kph)
- 10SM
07:35
Mostly Cloudy
72°F / 22°C 66°F / 19°C 83% 30.33 in
(1027 mb)
NE 4.6 mph
(NE 7 kph)
- 10SM
07:15
Mostly Cloudy
68°F / 20°C 68°F / 20°C 100% 30.33 in
(1027 mb)
Calm - 10SM
06:55
Mostly Cloudy
N/A N/A N/A 30.33 in
(1027 mb)
Calm - 10SM
06:35
Mostly Cloudy
N/A N/A N/A 30.3 in
(1026 mb)
Calm - 10SM
06:15
Mostly Cloudy
N/A N/A N/A 30.3 in
(1026 mb)
Calm - 10SM
05:55
Partly Cloudy
N/A N/A N/A 30.3 in
(1026 mb)
Calm - 7SM
05:15
Partly Cloudy
N/A N/A N/A 30.3 in
(1026 mb)
NNE 3.5 mph
(NNE 6 kph)
- 10SM
04:55
Mostly Cloudy
N/A N/A N/A 30.27 in
(1025 mb)
N 3.5 mph
(N 6 kph)
- 10SM
04:35
Overcast
N/A N/A N/A 30.27 in
(1025 mb)
Calm - 10SM
04:15
Mostly Cloudy
N/A N/A N/A 30.27 in
(1025 mb)
Calm - 10SM
03:55
Clear
N/A N/A N/A 30.24 in
(1024 mb)
NNE 4.6 mph
(NNE 7 kph)
- 10SM
03:35
Clear
N/A N/A N/A 30.24 in
(1024 mb)
Calm - 7SM
03:15
Partly Cloudy
N/A N/A N/A 30.24 in
(1024 mb)
Calm - 10SM
02:55
Partly Cloudy
N/A N/A N/A 30.24 in
(1024 mb)
Calm - 10SM
02:35
Partly Cloudy
N/A N/A N/A 30.24 in
(1024 mb)
Calm - 10SM
02:15
Clear
N/A N/A N/A 30.24 in
(1024 mb)
Calm - 10SM
01:55
Partly Cloudy
N/A N/A N/A 30.24 in
(1024 mb)
Calm - 10SM
01:35
Partly Cloudy
N/A N/A N/A 30.24 in
(1024 mb)
Calm - 10SM
01:15
Mostly Cloudy
N/A N/A N/A 30.21 in
(1023 mb)
Calm - 10SM
00:55
Mostly Cloudy
N/A N/A N/A 30.21 in
(1023 mb)
Calm - 10SM
00:35
Overcast
N/A N/A N/A 30.21 in
(1023 mb)
Calm - 10SM
00:15
Overcast
N/A N/A N/A 30.21 in
(1023 mb)
Calm - 10SM
Time Weather Temperature Dewpoint Humidity Pressure Winds Precip Visibility


Weather for websites

WeatherForYou.com, LLC is not responsible for any damages or problems caused by this service. Current weather conditions are obtained from the closest station including government and personal stations which may have varying degrees of accuracy. Weather forecasts are derived from the NOAA NDFD. Like all things, this site belongs to Jesus Christ... He just trusts us to maintain it. If you have any questions or comments email webmaster@weatherforyou.com

Copyright © 2016, WeatherForYou.com LLC. All rights reserved.